Wind_Speed
6 6 5 5 5 4 3 3 3 3 4 5 5 6 6 6 6 6 6 7 7 8 7 7 7 8 8 9 9 9 9 8 8 7 7 7 6 6 6 6 7 7 7
6 6 5 4 4 4 3 2 3 3 4 5 5 6 6 6 6 6 6 6 7 7 6 6 6 6 7 8 9 8 8 8 7 7 7 6 6 5 6 6 6 6 6
6 6 6 5 4 4 4 4 4 3 4 5 5 6 6 6 6 5 5 5 6 6 6 6 5 6 7 8 8 8 8 7 7 6 6 5 5 6 6 6 5 5 6
7 6 6 5 5 5 5 4 4 3 3 4 4 5 5 6 5 6 6 6 6 5 5 5 5 6 7 7 7 7 7 7 7 6 6 5 5 6 6 5 5 5 6
7 7 6 4 5 5 5 5 4 4 3 3 3 4 5 6 6 6 6 6 6 5 5 5 6 7 7 7 7 7 7 7 6 6 6 6 5 5 5 5 5 5 6
7 7 7 5 5 5 5 5 5 4 4 4 4 5 6 6 6 6 6 7 6 6 6 6 7 7 7 7 7 7 7 6 6 6 6 5 5 6 5 5 4 5 5
8 8 8 7 6 5 5 5 5 5 5 5 5 6 6 7 6 5 6 6 6 7 7 7 7 7 7 6 6 6 6 6 6 6 5 5 6 5 5 4 4 5 5
8 8 8 8 7 6 6 5 5 5 5 5 6 6 6 6 6 5 6 6 7 6 6 6 6 6 6 5 6 6 6 6 5 5 5 6 6 5 5 4 4 4 5
7 8 7 6 6 6 6 6 5 5 5 5 5 5 6 6 5 5 5 6 7 6 6 5 5 5 5 5 5 5 6 6 5 5 5 5 5 5 5 4 3 4 5
7 7 7 6 5 5 5 5 5 5 4 5 5 5 5 5 5 5 6 6 6 6 6 5 5 4 5 5 5 5 6 5 5 5 5 4 4 4 4 3 3 4 4
8 7 7 6 6 5 5 5 5 5 4 4 5 5 5 5 5 5 5 5 5 5 6 6 5 5 5 5 5 5 5 5 5 5 4 4 4 3 3 3 3 3 3
9 8 8 7 6 5 4 4 4 5 5 4 4 5 5 5 5 5 5 5 4 4 5 5 5 5 5 5 5 4 5 4 4 4 4 4 3 3 3 3 3 3 3
9 8 8 7 6 5 4 4 4 4 4 4 4 4 4 4 4 4 4 4 4 4 4 4 4 4 4 4 4 4 4 4 4 4 4 4 3 3 3 3 3 3 2
10 9 8 7 7 6 5 4 4 4 4 4 4 3 3 3 3 3 3 3 3 3 4 4 4 4 3 3 3 3 3 4 4 4 4 3 3 4 3 3 2 2 2
11 10 9 8 7 6 5 4 3 3 3 3 3 3 2 2 2 2 2 2 3 3 3 4 4 3 3 3 2 2 3 3 3 3 3 3 3 3 3 3 2 2 2
12 10 9 8 7 6 6 4 3 3 3 2 2 1 2 1 1 1 1 2 2 2 2 2 3 3 3 2 2 2 2 3 2 3 3 3 3 3 3 3 3 3 3
12 11 10 9 8 7 6 6 4 3 3 3 2 1 1 1 1 0 2 2 1 1 1 1 2 2 2 2 2 2 2 2 3 3 3 3 4 4 4 4 5 5 5
13 12 11 11 9 8 7 6 5 4 3 3 2 2 1 1 2 1 1 2 3 2 2 2 2 2 2 2 2 3 3 3 4 4 4 5 5 5 5 5 6 6 7
13 12 11 11 10 9 8 7 6 6 4 3 2 2 2 3 3 3 3 3 3 4 3 3 3 3 3 4 4 4 5 5 5 5 5 6 7 7 7 7 8 8 9
14 12 12 12 11 10 9 8 7 6 5 4 3 3 3 3 4 4 4 4 4 5 5 5 5 5 5 6 6 7 7 8 7 8 8 8 8 9 9 10 10 10 10
15 12 12 12 11 11 10 9 8 6 6 5 4 3 4 4 4 5 5 5 5 5 6 6 7 7 7 7 8 8 9 10 10 10 10 10 11 11 11 11 12 12 12
14 13 12 11 11 10 10 10 9 8 7 6 6 5 5 5 6 6 6 6 5 6 7 7 7 7 8 9 9 10 10 11 12 12 12 13 13 13 13 13 13 14 14
13 13 13 12 11 11 11 11 10 9 8 8 7 7 6 6 7 7 7 6 7 7 8 8 9 9 10 10 11 11 12 13 13 13 13 14 14 14 14 14 14 15 15
13 13 13 12 11 11 11 11 11 10 9 8 9 8 8 8 8 8 8 8 8 9 9 10 10 11 11 11 12 12 13 14 14 14 14 15 15 16 16 16 16 16 17
13 13 13 12 12 11 11 12 11 10 10 10 10 9 8 9 9 9 9 9 10 10 10 11 12 12 13 13 13 14 15 16 16 16 16 16 17 18 18 19 18 18 18
13 13 13 13 13 12 12 13 12 12 11 11 11 11 10 10 10 10 10 11 11 11 11 12 13 13 14 14 15 15 15 16 17 17 18 18 18 19 20 20 20 19 20
Wind_Direction
60 63 72 71 77 77 85 110 116 125 151 159 159 162 160 156 150 146 142 140 139 138 133 130 129 130 133 134 136 135 134 133 130 130 129 126 130 136 136 133 129 123 117
62 61 61 66 71 78 88 100 105 123 142 158 162 164 160 156 156 147 147 148 145 141 140 136 135 134 133 138 138 136 138 137 133 133 133 132 134 138 141 139 132 128 121
57 59 62 61 69 86 104 114 115 121 140 154 160 166 163 161 157 150 150 147 145 139 141 140 139 138 139 140 143 141 140 136 137 136 135 133 134 135 136 130 128 129 129
51 54 56 60 71 85 103 109 111 108 123 140 150 159 163 161 156 149 145 145 144 139 135 142 140 141 142 145 146 142 137 138 141 140 135 133 132 131 129 125 126 127 128
49 51 53 58 74 92 103 106 102 95 101 110 130 147 155 158 155 148 141 138 140 139 137 138 139 140 140 146 146 144 143 143 144 144 136 135 130 128 125 123 125 133 131
46 46 44 59 71 82 90 94 90 86 90 101 123 138 143 148 147 143 139 137 135 130 124 126 135 137 140 144 144 144 146 148 147 142 141 140 132 128 123 120 128 129 126
45 42 42 58 65 75 80 79 78 85 88 95 111 122 130 135 135 134 133 138 136 135 135 135 138 134 135 142 143 143 147 149 150 147 146 134 135 130 128 122 126 118 118
49 48 43 49 55 66 79 79 80 80 87 92 105 119 128 128 131 139 140 141 143 141 141 141 139 141 136 139 149 149 151 151 150 153 147 132 132 135 130 131 122 123 123
49 48 43 51 56 62 71 77 80 83 89 89 101 110 117 124 129 136 138 136 140 143 143 144 143 148 143 141 145 158 159 153 149 152 148 139 132 137 136 138 137 130 125
50 48 45 46 57 59 63 72 81 89 95 93 99 108 110 117 121 124 124 130 137 136 136 138 140 144 148 148 142 148 151 150 151 155 152 144 138 141 145 145 146 142 129
46 46 43 46 53 54 62 70 80 88 98 99 99 105 107 112 118 116 115 116 120 126 128 133 133 136 144 145 139 134 139 138 150 157 159 156 150 149 153 155 149 150 136
42 44 43 42 47 48 57 67 84 92 96 100 101 99 104 104 111 114 114 118 121 125 126 132 135 135 146 144 145 145 147 147 150 159 165 166 164 159 158 164 161 153 150
37 39 39 40 43 43 48 64 82 83 90 97 99 95 91 94 96 104 115 122 124 123 124 130 135 138 145 153 155 157 156 153 155 161 164 171 175 170 170 167 155 158 175
33 35 36 35 35 39 44 58 67 66 75 82 85 88 87 92 98 111 114 120 126 124 126 134 136 137 142 152 159 165 171 165 165 169 164 171 177 169 165 171 169 184 191
33 35 32 35 35 37 39 46 55 58 63 64 64 81 86 81 87 105 120 128 135 127 131 137 138 137 139 148 163 176 181 173 170 170 175 185 191 182 181 194 204 214 224
33 35 35 35 33 31 31 33 39 43 45 40 38 84 89 74 60 116 157 152 141 135 135 143 151 153 150 158 171 176 175 178 182 176 190 198 200 204 215 230 235 244 247
32 34 34 33 31 31 32 33 31 27 21 21 22 41 43 14 9 356 201 202 208 209 180 171 182 186 194 205 207 212 204 194 195 198 208 216 224 227 237 245 248 249 257
30 32 33 33 35 33 31 28 22 18 12 6 359 7 3 347 343 325 259 240 249 251 248 239 233 239 239 243 250 245 235 231 230 232 233 236 241 243 248 253 255 258 261
30 31 31 32 33 34 30 27 22 24 22 12 355 345 335 333 324 307 285 273 260 258 259 260 255 258 259 261 264 262 254 250 252 257 255 249 250 251 254 256 259 262 265
28 31 31 31 31 31 28 26 23 22 24 20 360 346 338 336 326 314 292 278 272 263 263 266 264 263 263 265 265 263 264 262 262 268 265 260 258 259 260 262 263 264 267
25 28 27 27 27 28 27 24 22 20 15 6 353 333 326 327 321 319 309 280 272 270 264 265 265 265 267 269 269 268 268 268 268 269 271 265 262 263 264 266 267 266 270
23 22 19 21 23 23 24 23 21 16 10 4 353 332 318 316 316 309 305 293 282 279 277 275 270 267 268 270 271 271 273 275 274 274 273 269 265 262 262 267 268 269 272
19 18 19 21 21 21 21 20 16 13 9 3 353 342 330 321 313 307 298 295 291 288 285 283 283 278 275 273 272 272 273 275 276 276 272 267 266 263 266 266 267 268 272
16 16 19 21 20 20 20 16 12 8 4 355 349 342 331 325 320 310 300 293 290 289 287 285 284 283 282 280 280 278 277 278 279 275 273 271 271 270 271 272 272 271 271
16 18 18 18 17 17 15 12 7 1 356 351 352 346 334 325 319 315 309 302 295 290 286 286 286 286 285 283 283 282 282 280 279 277 275 275 273 271 271 271 271 272 273
15 17 16 15 13 12 10 7 2 356 353 350 347 344 337 328 320 315 310 305 299 293 289 287 287 287 288 286 285 285 285 284 280 277 277 277 276 275 274 273 274 274 274
Height
5867 5866 5866 5865 5866 5866 5866 5866 5866 5866 5866 5866 5867 5867 5868 5868 5869 5870 5871 5871 5872 5873 5874 5874 5875 5875 5876 5877 5878 5879 5880 5881 5883 5884 5885 5886 5886 5887 5888 5888 5889 5890 5890
5868 5867 5867 5866 5866 5867 5867 5867 5866 5866 5867 5867 5867 5868 5868 5869 5870 5870 5871 5872 5872 5873 5874 5875 5876 5876 5877 5878 5879 5880 5881 5882 5883 5885 5885 5886 5887 5888 5889 5889 5890 5891 5891
5869 5868 5868 5867 5867 5867 5867 5867 5868 5867 5867 5868 5868 5868 5868 5869 5870 5871 5872 5873 5873 5874 5875 5876 5877 5877 5878 5879 5880 5881 5882 5883 5884 5885 5886 5887 5888 5889 5889 5890 5891 5891 5892
5870 5869 5869 5868 5868 5868 5868 5868 5869 5868 5868 5867 5867 5867 5868 5869 5871 5872 5873 5873 5874 5875 5876 5877 5877 5878 5879 5880 5881 5882 5883 5884 5885 5886 5887 5888 5888 5889 5890 5891 5892 5892 5893
5872 5871 5870 5870 5869 5869 5869 5869 5869 5869 5868 5867 5867 5867 5868 5870 5871 5872 5873 5874 5875 5876 5877 5878 5878 5879 5880 5881 5882 5883 5884 5885 5886 5887 5887 5888 5889 5890 5890 5891 5892 5893 5893
5873 5872 5871 5871 5870 5870 5870 5870 5870 5870 5869 5868 5868 5867 5868 5870 5872 5874 5874 5875 5876 5877 5878 5879 5879 5880 5881 5882 5883 5884 5885 5886 5887 5887 5888 5889 5889 5890 5891 5892 5893 5893 5894
5874 5873 5873 5872 5872 5872 5871 5871 5871 5871 5871 5870 5870 5869 5870 5872 5873 5875 5875 5876 5877 5878 5879 5880 5881 5881 5882 5883 5884 5885 5886 5887 5887 5888 5889 5889 5889 5890 5891 5893 5894 5894 5895
5876 5875 5874 5873 5873 5873 5873 5873 5873 5873 5872 5872 5872 5872 5872 5874 5875 5876 5876 5877 5878 5879 5880 5881 5881 5882 5883 5883 5884 5886 5886 5887 5888 5889 5889 5890 5890 5891 5892 5893 5894 5895 5896
5877 5876 5874 5874 5875 5875 5875 5874 5874 5874 5874 5874 5874 5874 5875 5875 5876 5877 5877 5878 5879 5880 5881 5881 5882 5883 5883 5884 5885 5886 5887 5888 5888 5889 5890 5891 5891 5892 5893 5894 5895 5896 5897
5878 5878 5877 5875 5876 5876 5876 5876 5876 5876 5876 5876 5876 5876 5877 5877 5878 5878 5879 5879 5880 5881 5881 5882 5883 5884 5884 5885 5886 5886 5887 5888 5889 5890 5890 5891 5892 5892 5893 5894 5895 5896 5897
5880 5879 5878 5878 5877 5877 5877 5877 5877 5877 5877 5877 5878 5878 5878 5879 5879 5880 5880 5880 5881 5882 5882 5883 5884 5884 5885 5885 5886 5887 5888 5888 5889 5890 5891 5891 5892 5893 5894 5895 5896 5897 5898
5881 5880 5880 5879 5879 5879 5879 5879 5878 5879 5879 5879 5879 5879 5880 5880 5880 5881 5881 5882 5882 5883 5883 5884 5884 5885 5885 5886 5887 5887 5888 5889 5890 5890 5891 5892 5892 5893 5894 5895 5896 5897 5898
5882 5882 5881 5881 5880 5880 5880 5880 5880 5880 5880 5880 5880 5881 5881 5881 5881 5882 5882 5883 5883 5884 5884 5885 5885 5886 5886 5887 5887 5888 5888 5889 5890 5891 5891 5892 5893 5894 5895 5896 5897 5897 5898
5884 5883 5883 5882 5881 5881 5881 5881 5881 5881 5881 5882 5882 5882 5882 5882 5883 5883 5883 5884 5884 5885 5885 5885 5886 5886 5887 5887 5888 5888 5889 5889 5890 5891 5891 5892 5893 5894 5895 5896 5897 5897 5898
5886 5885 5884 5883 5883 5882 5882 5882 5882 5882 5882 5883 5883 5883 5883 5883 5884 5884 5884 5885 5885 5885 5886 5886 5886 5887 5887 5887 5888 5888 5889 5889 5890 5891 5892 5892 5893 5894 5895 5896 5896 5897 5897
5887 5887 5885 5885 5884 5884 5883 5883 5882 5882 5883 5883 5884 5884 5884 5884 5884 5885 5885 5885 5886 5886 5886 5886 5887 5887 5888 5888 5888 5889 5889 5890 5890 5891 5891 5892 5893 5894 5894 5895 5896 5896 5897
5889 5888 5887 5886 5886 5885 5884 5884 5884 5884 5884 5884 5884 5884 5885 5885 5885 5885 5885 5886 5886 5886 5886 5887 5887 5887 5888 5888 5888 5889 5889 5889 5890 5891 5891 5892 5893 5893 5894 5894 5895 5895 5896
5891 5890 5889 5888 5887 5886 5886 5885 5885 5884 5884 5885 5885 5885 5885 5885 5885 5885 5886 5886 5886 5886 5887 5887 5887 5887 5888 5888 5888 5889 5889 5889 5890 5890 5891 5891 5892 5892 5893 5893 5894 5894 5894
5893 5892 5891 5889 5888 5888 5887 5886 5886 5885 5885 5885 5885 5885 5885 5885 5885 5885 5885 5886 5886 5886 5886 5886 5887 5887 5887 5888 5888 5888 5888 5889 5889 5889 5889 5890 5890 5891 5891 5892 5892 5892 5893
5895 5894 5892 5891 5890 5889 5888 5887 5887 5886 5886 5885 5885 5885 5885 5885 5885 5885 5885 5885 5885 5886 5886 5886 5886 5886 5886 5887 5887 5888 5888 5888 5888 5888 5888 5888 5888 5889 5889 5890 5890 5890 5890
5897 5896 5894 5893 5891 5890 5889 5888 5888 5887 5886 5886 5885 5885 5885 5885 5884 5884 5884 5884 5884 5885 5885 5885 5885 5885 5885 5885 5886 5886 5886 5886 5886 5886 5886 5886 5886 5886 5886 5887 5887 5887 5888
5899 5898 5896 5894 5893 5892 5891 5890 5889 5888 5887 5886 5886 5885 5885 5884 5884 5883 5883 5883 5883 5883 5883 5884 5884 5884 5884 5884 5884 5884 5884 5885 5884 5884 5884 5884 5883 5883 5883 5884 5884 5884 5885
5901 5899 5898 5896 5894 5893 5892 5891 5890 5889 5888 5887 5886 5885 5884 5883 5883 5882 5882 5882 5882 5882 5882 5882 5882 5882 5882 5882 5882 5882 5882 5882 5881 5881 5881 5880 5879 5879 5879 5880 5880 5881 5881
5902 5901 5899 5897 5896 5894 5893 5891 5890 5889 5888 5887 5886 5884 5884 5883 5882 5881 5881 5881 5880 5880 5880 5880 5880 5880 5879 5879 5879 5879 5879 5878 5878 5878 5877 5877 5876 5876 5876 5876 5877 5877 5877
5904 5902 5900 5899 5897 5895 5894 5892 5891 5889 5888 5886 5885 5884 5883 5882 5881 5880 5879 5879 5878 5878 5878 5878 5877 5877 5876 5876 5875 5875 5875 5874 5874 5874 5874 5873 5873 5873 5873 5873 5872 5872 5872
5905 5903 5901 5900 5898 5896 5894 5893 5891 5889 5888 5886 5885 5883 5882 5881 5880 5879 5878 5877 5876 5876 5875 5875 5874 5874 5873 5873 5872 5871 5871 5870 5870 5870 5869 5869 5869 5869 5868 5868 5868 5867 5867